Temperature
27 28 28 29 29 29 29 29 29 29 29 29 29 29 29 28 28 27 27 26 26 24 23 22 22 22 22 22 22 22 22 21 21 20 20 19 19 18 18 18 17 17 17 16
28 28 28 28 28 28 28 28 29 29 29 29 29 29 29 28 27 26 26 25 25 24 22 22 22 22 22 22 22 22 22 22 21 21 20 20 19 18 18 17 17 17 16 16
28 28 28 28 28 28 28 29 28 28 29 29 29 28 28 28 26 25 25 24 24 23 23 22 21 21 21 21 22 22 22 22 21 21 20 19 19 18 18 17 17 16 16 16
28 29 28 28 28 28 28 29 28 28 28 28 28 28 28 28 28 27 25 24 24 23 23 22 22 21 21 21 21 21 21 21 21 20 20 19 19 18 18 17 17 16 16 16
28 28 28 28 28 28 28 28 28 28 27 28 28 27 29 28 27 27 26 24 23 23 22 22 21 21 20 20 21 21 20 20 20 20 19 19 18 18 17 17 16 16 15 15
29 29 29 29 29 28 28 27 27 27 28 27 27 27 27 27 25 25 25 23 22 22 21 21 20 20 20 20 20 20 20 19 19 19 19 19 18 18 17 17 16 16 15 15
28 29 29 29 28 28 28 27 26 26 26 26 27 26 26 24 23 23 23 22 21 20 20 19 19 19 19 19 19 19 19 19 18 18 18 18 18 17 17 16 16 16 15 15
27 27 28 29 28 27 28 27 25 25 25 26 27 26 25 23 21 20 19 19 19 18 18 17 17 17 17 18 18 18 18 18 17 17 17 17 17 16 16 16 16 15 15 15
27 27 28 28 28 28 27 27 27 26 26 25 26 26 23 22 21 20 18 18 17 16 15 15 15 15 15 15 16 16 16 16 16 16 16 16 16 16 16 16 16 15 15 15
28 26 28 28 28 27 27 27 26 26 24 24 26 26 25 22 20 19 18 17 16 15 15 14 13 13 13 13 13 14 14 14 14 15 15 15 15 15 15 15 15 15 15 14
28 26 27 27 27 26 26 26 26 26 25 24 24 25 21 20 19 18 17 16 15 15 14 14 13 13 13 13 13 12 12 13 13 14 14 14 14 14 14 14 14 14 14 14
27 27 26 27 27 26 26 26 25 24 24 24 24 23 19 18 18 17 16 15 14 14 14 13 13 12 12 12 12 12 12 12 12 12 13 13 13 13 13 13 13 14 14 14
26 25 25 26 26 26 26 26 25 25 24 24 23 22 18 17 17 15 15 14 14 13 13 13 12 12 11 11 11 11 11 11 11 11 11 11 12 12 12 12 13 13 13 13
25 25 25 25 25 26 25 25 24 24 23 24 23 22 17 16 15 15 14 13 13 13 12 12 11 11 10 10 10 10 10 10 10 10 10 10 11 11 11 11 12 12 12 12
24 25 25 26 26 25 24 23 23 23 22 22 21 20 16 15 14 13 12 11 11 11 10 10 9 9 9 9 9 9 9 9 9 9 9 10 10 10 10 10 11 11 11 11
24 24 25 25 25 24 23 21 21 20 19 19 19 16 15 13 12 11 11 10 10 10 10 9 10 10 10 10 10 9 9 9 9 9 9 9 9 9 9 9 10 10 10 10
25 23 24 25 24 23 21 18 18 18 17 17 17 15 14 14 13 12 11 10 10 10 11 11 11 10 10 10 10 10 9 9 9 9 9 9 9 9 9 9 9 9 9 10
23 23 23 24 24 22 17 18 17 17 16 16 15 15 14 13 12 12 12 12 11 11 11 11 10 10 10 10 10 9 9 9 9 9 9 9 9 9 9 9 9 9 9 9
22 22 23 23 23 20 17 16 16 16 16 15 14 15 14 14 13 14 14 12 11 11 11 10 10 10 10 9 9 9 9 9 9 9 9 9 9 9 9 9 9 9 9 9
22 22 23 22 21 20 15 16 15 15 15 14 14 14 14 13 14 14 12 11 11 10 10 10 9 9 9 9 9 9 9 9 9 9 9 9 8 8 8 8 8 8 8 8
22 22 21 20 20 18 16 16 16 16 15 14 13 13 13 13 12 12 11 11 10 10 10 9 9 9 9 9 8 8 8 8 8 8 8 8 8 8 8 8 8 8 8 8
20 21 20 19 19 17 15 16 15 15 13 13 12 12 12 11 11 11 11 10 10 10 9 9 9 9 8 8 8 8 8 8 8 8 7 7 7 7 8 8 8 8 7 8
19 18 19 18 17 15 14 14 14 13 13 12 12 11 11 11 11 10 10 10 10 9 9 9 9 8 8 8 8 8 7 7 7 7 7 7 7 7 7 7 7 8 8 8
18 16 17 17 16 15 15 14 13 13 12 11 11 11 10 10 10 10 10 9 9 9 9 8 8 8 8 8 7 7 7 7 7 7 6 6 7 7 7 7 7 8 8 8
17 17 17 16 16 15 15 14 13 12 11 11 11 10 10 10 10 9 9 9 9 8 8 8 8 7 7 7 7 6 6 6 6 6 6 6 6 7 7 7 7 7 7 8
17 17 16 16 15 14 13 12 12 11 11 10 10 10 10 9 9 9 9 8 8 8 7 7 7 7 6 6 6 6 6 5 5 5 5 6 6 6 6 6 7 7 7 7
Wind_Speed
4 5 2 1 3 2 2 5 4 0 2 2 1 1 1 2 1 2 4 5 7 7 8 9 9 10 10 9 9 8 7 6 5 3 3 2 3 3 3 4 4 6 7 8
5 2 2 0 2 4 4 5 4 2 1 3 3 4 1 0 1 1 2 4 5 7 8 9 9 9 10 10 9 8 8 7 6 4 2 2 3 3 4 4 4 5 6 8
2 5 1 3 4 4 3 3 3 4 3 5 6 9 6 3 2 1 2 3 4 6 8 9 9 9 9 9 9 8 8 7 6 5 4 3 3 4 4 4 4 5 7 8
2 3 0 2 2 3 2 2 4 6 9 8 5 11 6 4 3 2 2 3 3 4 5 6 7 7 7 7 7 6 7 7 6 6 5 4 4 5 5 5 6 7 7 8
1 3 2 2 2 4 4 2 5 8 10 11 8 10 4 4 2 0 0 1 2 3 2 2 3 3 3 4 5 5 5 6 6 6 5 5 5 5 5 6 6 8 7 7
2 2 3 3 2 2 1 4 6 8 9 10 3 7 3 3 4 5 3 2 2 2 1 2 2 2 1 2 4 4 5 5 5 5 5 5 5 6 7 8 8 8 7 7
2 2 1 3 6 4 6 9 8 7 6 4 2 6 2 8 7 7 7 6 6 5 5 6 6 6 4 3 3 4 5 5 4 5 5 5 6 7 8 8 8 8 8 8
3 1 2 4 7 8 8 9 9 8 8 6 5 5 5 9 9 10 10 11 11 11 11 10 10 9 8 7 6 5 4 4 3 4 4 4 6 7 7 7 8 8 8 9
4 4 2 3 5 7 8 8 7 10 12 11 7 2 7 8 10 12 13 14 15 14 15 14 14 13 12 11 11 9 8 6 6 5 5 5 6 7 8 9 9 9 8 9
5 8 6 3 5 1 5 6 6 8 9 11 8 7 2 6 8 10 12 13 13 13 14 14 13 14 13 13 12 12 10 9 9 9 8 7 7 8 9 10 10 10 10 9
6 8 9 6 6 8 5 4 6 8 8 12 13 5 6 7 7 7 9 10 11 12 12 12 12 12 12 12 12 12 11 11 10 11 10 10 10 10 10 10 11 11 10 10
4 8 11 9 1 1 4 5 6 8 9 9 13 4 8 8 7 6 7 8 9 10 10 11 11 11 11 12 11 11 11 11 11 11 11 12 12 12 12 12 12 11 12 11
3 6 11 8 4 5 5 5 7 8 10 12 14 2 7 6 5 5 6 8 8 10 11 11 11 11 11 12 11 11 11 11 11 11 11 11 12 12 13 14 13 12 12 12
4 9 12 14 12 10 9 7 7 9 11 13 13 3 6 4 4 6 8 10 11 11 12 12 12 11 11 11 11 11 11 11 11 11 10 11 11 12 12 13 13 13 12 12
4 9 11 12 10 8 7 7 7 8 9 11 10 4 5 5 7 8 10 12 13 13 12 11 11 11 11 11 10 10 10 10 10 11 11 11 11 11 12 12 13 13 12 13
3 7 9 11 6 3 0 5 5 4 6 6 5 1 4 6 8 10 12 13 14 13 13 13 13 13 13 13 13 13 13 12 12 13 13 13 12 12 12 12 13 12 12 12
4 5 7 9 3 7 3 6 7 5 4 7 6 4 9 12 12 13 14 15 15 15 16 17 18 17 17 17 17 17 17 16 15 15 16 15 14 14 13 13 13 13 12 12
4 5 6 9 9 9 6 6 7 5 3 2 4 8 12 14 16 17 18 16 15 17 19 21 20 20 20 19 19 19 18 18 18 18 18 17 16 16 15 14 13 12 11 11
3 4 6 7 11 1 6 5 7 8 8 2 7 14 17 18 20 19 13 14 19 22 22 21 21 22 21 21 20 20 19 19 19 19 18 18 17 17 16 16 15 13 12 11
2 4 7 7 10 6 5 7 7 7 6 1 14 19 20 22 21 18 20 22 23 23 22 22 22 23 22 21 20 21 21 20 20 19 19 18 17 18 18 17 16 14 12 12
8 6 6 8 7 2 5 7 9 8 10 15 18 20 21 22 21 24 25 24 24 24 24 24 24 22 21 21 21 22 22 22 21 20 19 19 18 18 18 17 16 14 13 12
6 6 5 6 6 2 5 7 7 11 15 17 20 22 23 24 25 25 26 26 25 25 25 25 23 23 22 22 22 23 23 22 21 20 20 20 19 18 17 16 15 15 14 13
3 5 5 5 4 3 5 8 11 13 17 20 20 23 24 25 26 27 27 26 26 26 26 25 25 25 23 22 22 24 23 22 22 22 21 20 19 18 17 17 17 15 14 12
2 1 3 4 3 6 10 11 13 16 19 21 23 24 25 27 28 28 27 26 26 26 26 25 25 25 24 23 23 23 23 22 22 22 21 19 19 18 18 15 15 14 13 12
1 1 3 6 6 11 10 15 18 20 21 23 23 25 26 27 29 28 27 27 26 26 25 24 24 24 25 24 23 23 22 21 22 21 20 19 18 18 16 16 14 15 13 10
1 2 5 6 9 13 18 19 21 22 22 24 26 27 26 27 28 28 27 26 26 26 25 25 25 25 25 24 23 22 21 20 20 18 18 16 15 13 14 14 14 14 15 11
Wind_Direction
241 249 240 200 244 284 246 245 238 163 18 318 278 275 18 49 181 190 196 192 186 178 167 173 176 176 176 178 177 179 172 175 177 184 214 236 262 279 288 293 314 309 311 314
221 154 43 308 203 210 216 231 232 196 51 301 286 274 273 122 244 256 220 206 191 181 173 173 169 170 173 169 167 167 169 168 174 175 198 245 292 289 298 302 305 304 311 312
64 58 73 180 177 201 216 262 288 298 292 244 269 251 216 188 198 205 218 214 199 186 178 173 171 168 167 165 166 165 165 165 177 185 201 210 232 257 270 290 292 306 310 307
82 62 140 201 182 271 261 344 298 288 282 276 274 279 219 191 207 200 202 197 192 179 174 170 171 166 167 165 162 166 173 176 184 198 217 239 273 295 311 304 306 307 300 305
43 12 318 299 350 302 340 342 284 283 280 276 252 269 242 150 209 331 87 185 183 169 166 160 163 162 170 181 180 184 189 196 200 211 216 236 261 285 295 299 298 298 302 302
309 284 305 331 317 292 229 248 248 252 262 259 256 278 249 71 3 355 20 40 52 68 57 32 18 18 274 234 219 217 215 223 223 227 233 247 268 280 291 295 302 302 306 307
271 239 209 284 282 229 258 284 282 265 253 265 133 267 42 56 34 23 26 34 41 41 30 23 15 6 353 330 302 266 254 251 251 251 253 260 269 274 274 285 295 300 306 310
299 302 18 340 322 311 299 292 289 297 297 299 241 259 96 76 60 53 48 46 44 41 36 30 23 15 10 9 1 345 331 318 311 293 286 278 272 273 280 281 289 294 298 305
306 318 351 333 317 303 292 280 305 285 278 278 273 188 133 94 67 57 54 52 48 43 40 37 33 28 25 24 22 15 11 7 359 344 324 300 292 287 286 283 274 280 285 293
298 300 311 319 270 241 307 302 269 272 284 284 276 260 217 98 62 59 54 52 48 44 42 38 33 29 26 24 24 22 21 17 9 358 344 331 318 304 291 283 282 282 282 284
283 290 299 296 313 324 300 274 292 284 285 290 292 309 62 75 72 68 61 51 42 35 31 27 24 20 18 16 16 14 12 9 5 360 351 342 333 323 306 291 283 278 275 276
292 292 300 299 286 244 286 307 294 290 291 283 284 298 86 88 81 64 50 36 26 18 14 13 9 7 5 3 0 0 358 356 353 350 346 344 337 330 319 307 295 284 274 270
297 284 291 286 202 202 257 282 288 289 284 280 284 293 102 92 72 42 18 4 357 354 353 353 353 351 349 346 344 342 341 340 339 338 337 338 336 332 324 315 304 291 278 270
284 272 280 293 308 315 301 294 284 280 282 288 294 312 113 61 13 356 346 338 332 331 333 336 337 336 335 330 327 325 324 322 321 320 318 320 323 321 318 316 309 298 286 274
279 273 279 285 293 295 298 309 307 295 300 300 317 358 56 14 343 329 323 319 315 314 316 318 316 314 311 309 305 303 302 302 302 301 300 300 304 309 312 315 313 305 292 281
286 285 289 281 280 276 238 17 351 350 343 330 320 42 28 331 308 301 301 301 299 299 299 298 297 298 297 296 294 293 291 288 286 284 284 285 289 295 301 307 309 307 299 289
281 282 288 291 288 255 212 25 5 2 359 338 331 344 327 313 308 304 300 295 294 298 300 301 305 305 304 302 301 298 297 293 287 283 282 281 282 284 288 295 301 304 303 296
316 300 284 295 293 282 79 48 14 347 320 331 323 318 313 305 302 297 289 290 299 306 307 307 307 305 303 302 300 298 297 295 291 288 286 285 284 284 285 286 291 298 301 298
7 322 306 302 300 188 106 33 359 327 303 258 316 320 317 313 306 300 311 319 311 306 304 303 303 302 301 300 299 298 296 294 291 289 288 288 287 286 284 284 285 289 294 296
27 321 306 312 305 310 72 17 338 298 281 18 324 319 318 316 309 313 322 313 306 304 302 301 300 299 297 297 298 295 292 291 290 290 290 289 287 284 282 282 281 280 283 286
323 321 331 320 308 75 36 346 324 303 325 330 319 315 313 311 306 306 307 306 305 302 300 299 298 296 296 296 294 291 290 288 289 289 288 285 283 281 278 276 274 272 273 280
326 326 334 323 310 45 18 342 337 314 314 313 314 313 311 308 305 305 306 305 304 302 300 300 298 295 293 292 290 288 287 287 287 286 283 281 279 277 276 274 272 268 267 271
345 358 334 333 344 18 327 310 309 309 309 312 314 312 310 308 307 307 307 305 304 302 301 300 297 295 293 291 289 287 287 287 285 282 280 279 277 274 272 270 268 264 258 259
130 269 291 285 276 310 311 307 314 317 314 312 311 310 310 308 307 307 306 305 304 302 301 301 299 296 294 293 291 288 287 285 282 279 277 274 272 270 268 265 262 260 258 256
54 260 290 285 308 313 312 324 323 318 313 311 310 310 309 308 307 307 306 306 305 304 303 301 299 297 295 294 291 289 288 286 282 279 275 273 268 266 267 264 258 258 258 257
141 342 321 323 330 314 313 320 318 315 314 313 312 311 310 308 307 308 307 306 305 304 303 301 299 297 296 295 292 290 287 283 279 277 274 271 267 264 262 262 259 240 239 229
Height
1509 1506 1502 1500 1499 1499 1500 1499 1499 1498 1496 1495 1495 1495 1495 1497 1497 1497 1498 1500 1502 1505 1506 1508 1509 1511 1514 1515 1517 1519 1521 1522 1523 1524 1525 1526 1526 1525 1524 1523 1520 1518 1516 1514
1506 1504 1502 1502 1502 1501 1501 1502 1499 1498 1497 1496 1497 1496 1494 1497 1497 1498 1499 1500 1502 1504 1505 1506 1508 1510 1512 1514 1516 1518 1520 1521 1522 1523 1524 1523 1523 1523 1522 1520 1517 1515 1513 1510
1503 1503 1502 1502 1502 1502 1500 1500 1500 1500 1497 1495 1497 1496 1493 1494 1498 1499 1500 1501 1502 1503 1505 1507 1508 1510 1512 1514 1515 1517 1518 1519 1521 1521 1522 1521 1520 1520 1519 1518 1515 1512 1509 1507
1501 1501 1501 1500 1500 1499 1502 1498 1500 1500 1501 1496 1498 1502 1491 1491 1494 1496 1499 1500 1502 1504 1506 1507 1509 1511 1512 1514 1515 1516 1516 1518 1518 1519 1520 1520 1519 1518 1517 1514 1512 1509 1506 1503
1503 1501 1501 1501 1501 1500 1500 1500 1500 1499 1499 1500 1495 1501 1489 1490 1494 1495 1498 1501 1503 1505 1507 1509 1510 1511 1512 1513 1514 1515 1515 1516 1516 1516 1517 1516 1516 1515 1514 1511 1508 1505 1503 1500
1501 1501 1500 1500 1500 1500 1500 1501 1499 1497 1496 1505 1498 1504 1496 1494 1500 1499 1500 1503 1505 1506 1508 1509 1510 1511 1512 1513 1513 1514 1514 1514 1514 1514 1514 1513 1512 1511 1510 1507 1505 1503 1500 1497
1505 1500 1498 1500 1498 1498 1499 1503 1509 1509 1506 1503 1497 1502 1501 1504 1506 1507 1506 1506 1507 1508 1509 1509 1510 1510 1510 1511 1511 1512 1512 1512 1511 1510 1510 1509 1508 1507 1505 1504 1502 1499 1497 1494
1511 1510 1499 1499 1500 1502 1498 1503 1515 1522 1514 1502 1495 1498 1501 1507 1511 1512 1512 1511 1510 1511 1511 1510 1510 1510 1509 1509 1508 1509 1508 1508 1507 1506 1506 1505 1504 1503 1502 1500 1497 1495 1492 1490
1508 1509 1499 1500 1500 1499 1499 1497 1495 1505 1503 1507 1495 1493 1504 1508 1512 1514 1515 1515 1515 1515 1514 1513 1512 1511 1509 1508 1506 1505 1505 1504 1503 1503 1502 1501 1499 1498 1497 1494 1492 1490 1488 1485
1502 1509 1499 1499 1499 1499 1499 1496 1500 1504 1515 1513 1499 1495 1494 1507 1513 1517 1519 1519 1519 1519 1517 1516 1514 1512 1510 1508 1506 1505 1504 1502 1500 1499 1498 1497 1495 1493 1491 1489 1487 1485 1483 1480
1501 1508 1502 1497 1499 1501 1499 1499 1500 1498 1502 1511 1509 1502 1509 1512 1516 1519 1521 1522 1522 1521 1520 1518 1516 1514 1512 1510 1507 1505 1503 1501 1499 1497 1494 1492 1490 1488 1486 1484 1482 1480 1477 1475
1503 1503 1506 1498 1496 1499 1499 1500 1500 1508 1506 1502 1506 1507 1514 1517 1520 1522 1524 1524 1524 1522 1521 1519 1516 1514 1512 1509 1507 1504 1502 1499 1496 1494 1491 1488 1485 1483 1480 1478 1476 1474 1471 1469
1505 1508 1512 1502 1501 1499 1498 1497 1499 1501 1502 1502 1505 1507 1517 1519 1522 1524 1525 1524 1523 1522 1520 1517 1515 1512 1510 1507 1504 1501 1498 1495 1493 1490 1486 1483 1481 1478 1474 1472 1470 1468 1465 1463
1508 1506 1510 1512 1503 1496 1498 1497 1499 1502 1503 1499 1497 1502 1517 1521 1524 1525 1525 1523 1522 1519 1517 1515 1512 1509 1506 1503 1500 1497 1494 1491 1488 1485 1482 1479 1475 1473 1470 1467 1464 1461 1459 1457
1507 1503 1499 1496 1493 1495 1499 1501 1501 1502 1502 1504 1502 1508 1520 1525 1526 1526 1525 1522 1519 1516 1513 1510 1507 1504 1501 1498 1495 1491 1488 1485 1482 1479 1477 1474 1471 1468 1465 1462 1459 1455 1453 1451
1506 1505 1500 1498 1494 1496 1503 1509 1508 1511 1512 1510 1512 1519 1525 1527 1526 1524 1522 1519 1515 1512 1509 1506 1502 1499 1496 1492 1489 1486 1482 1479 1476 1473 1470 1468 1465 1462 1460 1457 1453 1450 1447 1444
1502 1506 1504 1497 1494 1498 1507 1520 1517 1517 1519 1518 1518 1523 1525 1523 1522 1520 1517 1513 1510 1507 1504 1501 1498 1494 1491 1487 1484 1480 1477 1473 1470 1467 1464 1461 1459 1456 1454 1451 1448 1445 1441 1439
1508 1506 1503 1497 1499 1508 1525 1523 1523 1523 1522 1523 1524 1524 1523 1521 1518 1515 1511 1507 1505 1502 1499 1495 1492 1488 1484 1480 1477 1473 1470 1466 1463 1460 1457 1455 1452 1450 1448 1445 1442 1439 1436 1433
1511 1508 1502 1501 1502 1509 1525 1526 1526 1526 1520 1523 1523 1521 1519 1516 1512 1506 1503 1502 1501 1497 1493 1489 1485 1481 1476 1473 1469 1465 1462 1459 1455 1452 1449 1447 1445 1443 1440 1438 1436 1433 1431 1428
1509 1509 1504 1505 1511 1511 1530 1528 1528 1528 1519 1523 1522 1519 1515 1512 1504 1500 1501 1498 1494 1490 1486 1481 1477 1473 1468 1465 1461 1457 1453 1450 1447 1444 1441 1439 1437 1434 1432 1430 1428 1426 1424 1422
1510 1508 1511 1512 1513 1517 1528 1528 1525 1524 1521 1522 1520 1517 1513 1508 1505 1499 1495 1491 1487 1482 1478 1473 1468 1464 1460 1456 1452 1448 1444 1441 1438 1436 1433 1430 1428 1426 1424 1422 1420 1419 1417 1416
1516 1513 1516 1515 1517 1525 1529 1526 1527 1527 1524 1521 1517 1513 1509 1504 1498 1493 1488 1483 1479 1474 1469 1464 1459 1454 1451 1447 1443 1438 1434 1432 1429 1426 1423 1421 1418 1417 1415 1413 1412 1411 1410 1409
1520 1524 1520 1523 1525 1529 1529 1528 1527 1525 1521 1517 1513 1508 1504 1497 1491 1486 1480 1475 1470 1465 1459 1455 1450 1444 1440 1437 1433 1428 1424 1422 1419 1416 1413 1411 1409 1407 1406 1405 1404 1403 1402 1402
1525 1529 1526 1525 1525 1527 1527 1525 1524 1521 1518 1513 1509 1503 1498 1491 1485 1479 1473 1467 1461 1455 1450 1445 1439 1433 1429 1426 1422 1418 1414 1411 1408 1404 1402 1400 1399 1397 1396 1395 1395 1394 1394 1394
1526 1527 1525 1524 1525 1526 1522 1522 1520 1517 1512 1507 1502 1498 1492 1485 1477 1471 1464 1458 1452 1446 1440 1435 1429 1423 1418 1414 1410 1406 1402 1399 1396 1393 1391 1389 1388 1387 1386 1386 1385 1385 1386 1387
1527 1527 1526 1525 1527 1526 1522 1519 1516 1511 1506 1501 1496 1489 1484 1478 1470 1463 1456 1450 1443 1437 1430 1425 1419 1413 1407 1402 1397 1394 1390 1387 1384 1381 1379 1378 1378 1377 1377 1376 1376 1376 1377 1378